STARLINK-5138 (54078 NORAD) Tracking and Keplerian Element Data

This shows tracking and keplerian element data for the satellite.

Feedback or suggestion? Click here.




ElementValue
Catalog54078
NameSTARLINK-5138
Epoch Orbit550
Epoch Day325.33334491
Epoch Year2022
RAAN350.9034
Inclination53.2152
Eccentricity0.0004387
Argument of Perigee2.7893
Mean Anonmoly339.0666
Mean Motion15.73223607
Decay Rate-0.00064574
L11 54078U 22136AD 22325.33334491 -.00064574 00000+0 -45842-3 0 9995
L22 54078 53.2152 350.9034 0004387 2.7893 339.0666 15.73223607 5508



Live tracking and technical data element details for STARLINK-5138 (NORAD 54078). STARLINK-5138 can be tracked NOW for your location showing map with azimuth and elevation plus other details from your city location.







IsCatalogInMostPopularTable: catalog: 54078, numindb: 1
Update: records affected: 1



GetName: 54078 STARLINK-5138

Hit Count: updated at: Fri, 09 Dec 2022 20:16:27 GMT